SCP
0 0 0 0 0 0 0 0 0 0 0 0 0 0 0 0 0 0 0 0 0 0 0 -0 0 0 0 0 0 0 0 0 0 0 0 0 0 0 0 0 0 0 0
0 0 0 0 0 0 0 0 0 0 0 0 0 0 0 0 0 0 0 0 0 0 0 0 0 0 0 0 0 0 0 0 0 0 0 0 0 0 0 0 0 0 0
0 0 0 0 0 0 0 0 0 0 0 0 0 0 0 0 0 0 0 0 0 0 0 0 0 0 0 0 0 0 0 0 0 0 0 0 0 0 0 0 0 0 0
-0 0 0 0 0 0 0 0 0 0 0 0 0 0 0 0 0 0 0 0 0 0 0 0 0 0 0 0 0 0 0 0 0 0 0 0 0 0 0 0 0 0 0
0 0 0 0 0 0 0 0 0 0 0 0 0 0 0 0 0 0 0 0 0 0 0 0 0 0 0 0 0 0 0 0 0 0 0 0 0 0 0 0 0 0 0
0 0 0 0 0 0 0 0 0 0 0 0 0 0 0 0 0 0 0 0 0 0 0 0 0 0 0 0 0 0 0 0 0 0 0 0 0 0 0 0 0 0 0
0 0 0 0 0 0 0 0 0 0 0 0 0 0 0 0 0 0 0 0 0 0 0 0 0 0 0 0 0 0 0 0 0 0 0 0 0 0 0 0 0 0 0
0 0 0 0 0 0 0 0 0 0 0 0 0 0 0 0 0 0 0 0 0 0 0 0 0 0 0 0 0 0 0 0 0 0 0 0 0 0 0 0 0 0 0
0 0 0 0 0 0 0 0 0 0 0 0 0 0 0 0 0 0 0 0 0 0 0 0 0 0 0 0 0 0 0 0 0 0 0 0 0 0 0 0 0 0 0
0 0 -0 0 0 0 0 0 0 0 0 0 0 0 0 0 0 0 0 0 0 0 0 0 0 0 0 0 0 0 0 0 0 0 0 0 0 0 0 0 0 0 0
0 0 0 0 0 0 0 0 0 0 0 0 0 0 0 0 0 0 0 0 0 0 0 0 0 0 0 0 0 0 0 0 0 0 0 0 0 0 0 0 0 0 0
0 0 0 0 0 0 0 0 0 0 0 0 0 0 0 0 0 0 0 0 0 0 0 0 0 0 0 0 0 0 0 0 0 0 0 0 0 0 0 0 0 0 0
0 0 0 0 0 0 0 0 0 0 0 0 0 0 0 0 0 0 0 0 0 0 0 0 0 0 0 0 0 0 0 0 0 0 0 0 0 0 0 0 0 0 0
0 0 0 0 0 0 0 0 0 0 0 0 0 0 0 0 0 0 0 0 0 0 0 0 0 0 0 0 0 0 0 0 0 0 0 0 0 0 0 0 0 0 0
0 0 0 0 0 0 0 0 0 0 0 0 0 0 0 0 0 0 0 0 0 0 0 0 0 0 0 0 0 0 0 0 0 0 0 0 0 0 0 0 0 0 0
0 0 0 0 0 0 0 0 0 0 0 0 0 0 0 0 0 0 0 0 0 0 0 0 0 0 0 0 0 0 0 0 0 0 0 0 0 0 0 0 0 0 0
0 0 0 0 0 0 0 0 0 0 0 0 0 0 0 0 0 0 0 0 0 0 0 0 0 0 0 0 0 0 0 0 0 0 0 0 0 0 0 0 0 0 0
0 0 0 0 0 0 0 0 0 0 0 0 0 0 0 0 0 0 0 0 0 0 0 0 0 0 0 0 0 0 0 0 0 0 0 0 0 0 0 0 0 0 0
0 0 0 0 0 0 0 0 0 0 0 0 0 0 0 0 0 0 0 0 0 0 0 0 0 0 0 0 0 0 0 0 0 0 0 0 0 0 0 0 0 0 0
0 0 0 0 0 0 0 0 0 0 0 0 0 0 0 0 0 0 0 0 0 0 0 0 0 0 0 0 0 0 0 0 0 0 0 0 0 0 0 0 0 0 0
0 0 0 0 0 0 0 0 0 0 0 0 0 0 0 0 0 0 0 0 0 0 0 0 0 0 0 0 0 0 0 0 0 0 0 0 0 0 0 0 0 0 0
0 0 0 0 0 0 0 0 0 0 0 0 0 0 0 0 0 0 0 0 0 0 0 0 0 0 0 0 0 0 0 0 0 0 0 0 0 0 0 0 0 0 0
0 0 0 0 0 0 0 0 0 0 0 0 0 0 0 0 0 0 0 0 0 0 0 0 0 0 0 0 0 0 0 0 0 0 0 0 0 0 0 0 0 0 0
0 0 0 0 0 0 0 0 0 0 0 0 0 0 0 0 0 0 0 0 0 0 0 0 0 0 0 0 0 0 0 0 0 0 0 0 0 0 0 0 0 0 0
0 0 0 0 0 0 0 0 0 0 0 0 0 0 0 0 0 0 0 0 0 0 0 0 0 0 0 0 0 0 0 0 0 0 0 0 0 0 0 0 0 0 0
0 0 0 0 0 0 0 0 0 0 0 0 0 0 0 0 0 0 0 0 0 0 0 0 0 0 0 0 0 0 0 0 0 0 0 0 0 0 0 0 0 0 0
Wind_Speed_500mb
22 20 17 12 14 18 20 21 23 26 24 15 10 11 15 16 14 16 22 26 35 36 33 31 38 39 37 35 36 37 40 40 43 45 43 48 50 55 71 74 77 81 82
25 21 18 16 13 15 16 19 20 22 23 22 21 21 19 18 19 21 20 18 19 23 25 33 30 31 37 26 23 25 30 35 32 36 40 33 36 42 43 60 64 70 80
25 22 22 19 16 14 16 17 18 21 22 22 21 18 16 15 13 17 20 24 24 24 26 23 24 30 34 19 17 17 19 24 25 20 22 14 16 19 33 38 42 51 62
24 24 21 18 16 17 17 18 18 20 20 19 17 15 14 14 15 16 16 17 18 20 21 21 21 20 21 22 25 18 14 20 28 23 26 28 26 15 17 16 21 28 31
22 21 21 17 16 16 18 19 20 21 21 21 21 20 18 18 17 16 16 16 16 16 16 16 17 17 16 14 12 14 15 13 12 21 18 24 28 32 24 26 36 31 27
25 22 19 19 17 18 19 20 22 23 22 21 20 19 18 16 15 14 14 15 16 16 15 15 15 15 14 12 11 12 15 14 12 13 13 12 9 15 17 17 28 31 32
27 28 25 20 19 18 21 19 21 22 22 22 21 20 19 17 15 15 14 16 17 16 16 17 15 14 14 15 14 12 10 14 14 12 12 13 13 13 11 9 14 13 11
20 29 31 27 25 25 22 21 21 22 23 23 23 22 21 19 18 16 15 16 19 20 19 18 18 18 17 16 15 14 13 11 11 12 16 14 13 13 15 17 18 5 6
15 20 24 30 32 31 26 26 25 23 22 24 23 23 21 19 17 15 15 16 17 20 23 20 18 19 19 19 17 15 13 14 13 13 12 12 16 15 11 10 11 12 8
11 15 16 22 30 34 36 34 31 28 24 24 23 24 24 21 19 17 19 22 28 34 35 32 29 28 21 17 16 15 14 14 14 14 14 14 14 12 9 8 7 7 10
12 14 14 16 21 32 40 40 37 27 24 22 21 23 24 24 26 27 29 34 40 40 33 26 22 15 12 15 16 15 14 12 13 14 15 15 15 15 14 13 11 8 8
12 17 20 22 25 29 38 40 33 27 24 21 19 20 23 27 30 36 38 41 40 32 27 24 19 9 6 12 16 18 18 17 16 15 16 16 15 16 16 17 18 18 16
12 18 22 26 28 30 33 36 32 27 24 20 17 19 24 30 37 42 49 42 33 28 26 22 18 12 11 13 16 20 20 19 19 18 17 16 16 17 18 19 19 18 18
13 20 26 32 33 28 26 31 31 28 24 19 18 19 27 36 42 40 35 33 28 24 22 19 16 11 10 14 19 22 25 21 19 18 17 16 15 15 18 21 21 22 22
14 19 27 30 27 23 22 31 31 27 23 20 18 24 40 41 35 31 29 28 25 23 20 17 15 15 15 16 17 22 26 25 22 19 18 17 17 17 15 17 20 21 25
14 22 25 24 22 17 21 28 27 24 21 20 23 37 37 33 29 27 25 24 23 21 18 17 18 20 21 20 19 18 27 27 24 20 18 17 18 18 16 13 16 18 21
21 25 24 20 16 14 17 22 24 24 23 25 32 35 30 26 24 24 24 22 20 18 17 19 23 26 24 22 19 14 26 27 24 21 21 18 17 17 15 14 19 22 21
21 23 22 18 13 9 14 20 23 24 27 34 31 27 23 23 23 23 23 21 19 19 22 25 28 28 24 22 18 12 26 25 20 20 20 20 16 13 13 22 25 24 22
22 19 15 12 9 9 14 21 25 31 30 27 22 22 23 23 23 24 21 20 20 24 28 29 28 27 22 17 12 13 24 22 17 15 12 14 17 13 16 20 25 24 23
17 15 15 15 16 17 21 23 24 22 20 22 23 24 24 24 23 23 23 24 28 29 27 25 24 21 18 15 11 11 21 19 15 15 17 14 14 15 13 22 27 22 26
17 17 15 15 14 14 15 17 19 19 20 22 24 24 26 25 25 26 28 29 28 27 26 22 18 17 17 15 12 9 18 18 15 20 23 21 17 14 16 24 24 24 32
18 17 15 14 15 16 16 18 20 20 22 23 27 27 28 29 28 29 28 27 27 26 22 21 15 16 16 16 15 12 10 12 23 26 25 23 20 25 22 27 26 25 35
16 16 17 18 19 19 20 21 22 24 27 28 30 31 30 30 29 28 27 27 26 25 22 19 17 17 17 15 11 5 10 17 21 24 25 26 26 29 31 31 42 40 44
17 19 20 21 23 24 25 27 29 31 33 34 33 32 31 30 27 27 28 28 29 26 21 16 21 23 21 16 7 7 17 22 27 25 27 31 26 25 45 44 46 49 46
22 24 26 28 29 30 31 33 35 37 37 36 34 33 32 29 28 29 29 31 27 25 18 22 28 30 27 22 19 26 28 29 33 34 25 33 40 45 50 51 47 41 38
27 30 31 33 36 38 40 38 39 38 38 37 35 33 32 31 30 31 29 29 27 23 22 25 25 29 29 26 23 25 25 26 28 36 38 46 50 51 48 45 43 40 38
Wind_Direction_500mb
257 266 272 299 323 338 348 360 12 19 23 18 3 352 2 0 344 337 325 320 317 324 328 327 311 302 301 293 281 276 273 266 262 276 283 280 271 259 252 258 261 256 250
251 257 264 285 300 314 333 348 358 7 15 21 25 28 21 8 5 3 359 349 332 315 311 308 320 333 327 308 292 280 273 272 264 264 265 278 278 275 265 255 256 256 259
245 248 255 263 281 306 324 335 348 356 2 11 16 18 19 23 20 15 13 10 10 4 351 342 335 333 322 327 324 310 308 300 280 277 261 267 258 281 277 271 260 271 270
243 244 247 260 280 301 314 327 339 344 347 357 3 6 2 359 7 13 3 350 343 341 343 350 353 347 342 356 351 341 327 300 298 290 264 260 268 280 268 252 269 281 282
236 244 249 255 275 292 304 315 322 329 334 339 343 346 350 354 360 355 348 339 336 334 328 333 334 333 342 357 11 354 356 349 321 300 283 261 266 260 262 281 280 277 289
235 242 251 259 274 288 296 303 310 314 319 322 325 328 334 340 342 340 340 343 346 347 348 351 346 337 334 338 338 344 346 4 24 30 3 335 315 295 287 272 274 283 300
238 245 248 259 262 265 272 285 296 300 304 311 315 319 319 319 320 324 332 340 339 341 344 349 349 346 347 347 343 334 328 311 321 343 19 34 30 18 351 310 285 266 245
259 258 257 258 261 265 273 283 287 292 296 299 298 296 297 300 301 310 322 332 336 341 345 349 352 354 353 352 346 343 340 332 327 317 308 314 329 341 353 6 13 337 200
301 287 274 272 275 277 275 269 272 278 284 288 294 297 299 298 300 304 320 330 333 331 328 324 334 341 346 347 348 346 346 340 335 334 333 330 319 315 328 343 352 345 322
331 314 293 281 275 271 265 262 263 266 276 278 282 283 282 281 283 292 308 311 311 309 300 296 299 302 316 322 323 333 347 351 346 345 341 339 344 346 341 325 313 308 312
327 322 324 315 294 271 263 260 258 260 262 268 272 275 280 281 282 290 299 303 308 302 295 293 292 301 326 336 339 339 340 341 342 342 346 348 347 349 350 350 352 344 320
315 323 328 321 309 286 262 255 253 256 259 264 269 281 285 286 291 296 299 302 297 289 285 283 278 285 329 343 343 342 340 342 342 339 338 342 346 349 354 353 357 356 350
310 326 325 324 317 304 270 253 249 251 253 261 272 282 290 297 299 297 299 298 294 289 285 281 278 286 305 319 318 320 322 326 331 333 333 335 336 337 344 348 351 354 352
321 320 327 331 325 308 268 247 244 244 247 253 267 286 302 303 301 297 295 296 298 289 283 286 293 300 315 314 314 309 313 321 323 322 322 323 322 326 335 341 346 347 343
309 333 334 326 317 299 255 235 234 239 247 260 268 296 306 303 299 292 290 290 291 291 290 293 305 316 317 296 307 309 309 316 319 318 316 313 304 303 321 335 344 336 336
322 328 326 326 319 294 250 236 238 245 251 262 284 301 299 296 294 292 290 287 283 285 292 301 310 308 299 292 294 309 305 311 316 316 314 312 303 302 307 322 340 338 342
310 320 325 328 321 293 258 243 242 249 257 271 289 294 294 291 290 288 287 287 288 292 305 315 307 298 297 292 295 313 298 304 311 313 314 315 314 317 325 335 319 322 325
319 323 326 328 321 285 246 241 246 257 272 286 288 288 287 288 288 286 287 289 297 310 312 302 297 297 298 293 289 311 288 301 304 305 310 319 319 320 358 335 323 326 328
315 313 319 318 307 279 259 256 262 273 279 280 277 282 287 288 290 288 291 298 309 307 297 297 297 298 301 297 294 300 295 301 309 309 307 314 315 322 330 320 323 327 324
311 311 311 305 296 284 275 272 272 273 275 278 281 285 288 290 291 295 305 302 294 293 294 295 297 297 301 302 302 305 308 311 315 318 325 330 323 329 335 319 320 339 332
313 312 312 306 296 286 283 279 276 275 278 282 285 287 288 292 294 291 291 291 291 292 293 294 292 293 300 302 300 308 305 318 324 321 327 330 334 330 321 313 316 332 314
306 303 303 297 293 291 287 282 280 282 284 286 289 293 293 292 287 288 288 287 290 290 289 290 282 290 296 300 301 310 291 311 302 310 315 324 337 324 303 291 307 303 297
293 296 298 299 296 292 290 287 288 290 293 292 292 292 292 289 285 284 285 284 283 284 287 281 287 295 299 303 289 283 315 307 307 307 313 308 294 290 290 299 305 307 306
304 305 302 296 292 290 290 292 293 294 292 292 292 291 290 286 283 282 284 282 282 280 277 274 298 303 303 312 286 263 320 320 318 312 305 294 286 282 299 302 301 300 301
305 303 300 297 295 294 293 293 293 293 291 289 290 290 288 282 282 282 281 279 276 272 273 297 305 309 313 321 326 318 310 314 317 303 291 294 292 296 299 303 306 308 308
300 297 297 297 297 295 295 295 293 291 288 289 289 287 282 282 283 283 278 273 273 267 268 269 281 291 291 293 292 295 296 297 289 284 289 293 298 301 304 304 304 304 303
Wind_Speed_850mb
22 20 17 12 14 18 20 21 23 26 24 15 10 11 15 16 14 16 22 26 35 36 33 31 38 39 37 35 36 37 40 40 43 45 43 48 50 55 71 74 77 81 82
25 21 18 16 13 15 16 19 20 22 23 22 21 21 19 18 19 21 20 18 19 23 25 33 30 31 37 26 23 25 30 35 32 36 40 33 36 42 43 60 64 70 80
25 22 22 19 16 14 16 17 18 21 22 22 21 18 16 15 13 17 20 24 24 24 26 23 24 30 34 19 17 17 19 24 25 20 22 14 16 19 33 38 42 51 62
24 24 21 18 16 17 17 18 18 20 20 19 17 15 14 14 15 16 16 17 18 20 21 21 21 20 21 22 25 18 14 20 28 23 26 28 26 15 17 16 21 28 31
22 21 21 17 16 16 18 19 20 21 21 21 21 20 18 18 17 16 16 16 16 16 16 16 17 17 16 14 12 14 15 13 12 21 18 24 28 32 24 26 36 31 27
25 22 19 19 17 18 19 20 22 23 22 21 20 19 18 16 15 14 14 15 16 16 15 15 15 15 14 12 11 12 15 14 12 13 13 12 9 15 17 17 28 31 32
27 28 25 20 19 18 21 19 21 22 22 22 21 20 19 17 15 15 14 16 17 16 16 17 15 14 14 15 14 12 10 14 14 12 12 13 13 13 11 9 14 13 11
20 29 31 27 25 25 22 21 21 22 23 23 23 22 21 19 18 16 15 16 19 20 19 18 18 18 17 16 15 14 13 11 11 12 16 14 13 13 15 17 18 5 6
15 20 24 30 32 31 26 26 25 23 22 24 23 23 21 19 17 15 15 16 17 20 23 20 18 19 19 19 17 15 13 14 13 13 12 12 16 15 11 10 11 12 8
11 15 16 22 30 34 36 34 31 28 24 24 23 24 24 21 19 17 19 22 28 34 35 32 29 28 21 17 16 15 14 14 14 14 14 14 14 12 9 8 7 7 10
12 14 14 16 21 32 40 40 37 27 24 22 21 23 24 24 26 27 29 34 40 40 33 26 22 15 12 15 16 15 14 12 13 14 15 15 15 15 14 13 11 8 8
12 17 20 22 25 29 38 40 33 27 24 21 19 20 23 27 30 36 38 41 40 32 27 24 19 9 6 12 16 18 18 17 16 15 16 16 15 16 16 17 18 18 16
12 18 22 26 28 30 33 36 32 27 24 20 17 19 24 30 37 42 49 42 33 28 26 22 18 12 11 13 16 20 20 19 19 18 17 16 16 17 18 19 19 18 18
13 20 26 32 33 28 26 31 31 28 24 19 18 19 27 36 42 40 35 33 28 24 22 19 16 11 10 14 19 22 25 21 19 18 17 16 15 15 18 21 21 22 22
14 19 27 30 27 23 22 31 31 27 23 20 18 24 40 41 35 31 29 28 25 23 20 17 15 15 15 16 17 22 26 25 22 19 18 17 17 17 15 17 20 21 25
14 22 25 24 22 17 21 28 27 24 21 20 23 37 37 33 29 27 25 24 23 21 18 17 18 20 21 20 19 18 27 27 24 20 18 17 18 18 16 13 16 18 21
21 25 24 20 16 14 17 22 24 24 23 25 32 35 30 26 24 24 24 22 20 18 17 19 23 26 24 22 19 14 26 27 24 21 21 18 17 17 15 14 19 22 21
21 23 22 18 13 9 14 20 23 24 27 34 31 27 23 23 23 23 23 21 19 19 22 25 28 28 24 22 18 12 26 25 20 20 20 20 16 13 13 22 25 24 22
22 19 15 12 9 9 14 21 25 31 30 27 22 22 23 23 23 24 21 20 20 24 28 29 28 27 22 17 12 13 24 22 17 15 12 14 17 13 16 20 25 24 23
17 15 15 15 16 17 21 23 24 22 20 22 23 24 24 24 23 23 23 24 28 29 27 25 24 21 18 15 11 11 21 19 15 15 17 14 14 15 13 22 27 22 26
17 17 15 15 14 14 15 17 19 19 20 22 24 24 26 25 25 26 28 29 28 27 26 22 18 17 17 15 12 9 18 18 15 20 23 21 17 14 16 24 24 24 32
18 17 15 14 15 16 16 18 20 20 22 23 27 27 28 29 28 29 28 27 27 26 22 21 15 16 16 16 15 12 10 12 23 26 25 23 20 25 22 27 26 25 35
16 16 17 18 19 19 20 21 22 24 27 28 30 31 30 30 29 28 27 27 26 25 22 19 17 17 17 15 11 5 10 17 21 24 25 26 26 29 31 31 42 40 44
17 19 20 21 23 24 25 27 29 31 33 34 33 32 31 30 27 27 28 28 29 26 21 16 21 23 21 16 7 7 17 22 27 25 27 31 26 25 45 44 46 49 46
22 24 26 28 29 30 31 33 35 37 37 36 34 33 32 29 28 29 29 31 27 25 18 22 28 30 27 22 19 26 28 29 33 34 25 33 40 45 50 51 47 41 38
27 30 31 33 36 38 40 38 39 38 38 37 35 33 32 31 30 31 29 29 27 23 22 25 25 29 29 26 23 25 25 26 28 36 38 46 50 51 48 45 43 40 38
Wind_Direction_850mb
257 266 272 299 323 338 348 360 12 19 23 18 3 352 2 0 344 337 325 320 317 324 328 327 311 302 301 293 281 276 273 266 262 276 283 280 271 259 252 258 261 256 250
251 257 264 285 300 314 333 348 358 7 15 21 25 28 21 8 5 3 359 349 332 315 311 308 320 333 327 308 292 280 273 272 264 264 265 278 278 275 265 255 256 256 259
245 248 255 263 281 306 324 335 348 356 2 11 16 18 19 23 20 15 13 10 10 4 351 342 335 333 322 327 324 310 308 300 280 277 261 267 258 281 277 271 260 271 270
243 244 247 260 280 301 314 327 339 344 347 357 3 6 2 359 7 13 3 350 343 341 343 350 353 347 342 356 351 341 327 300 298 290 264 260 268 280 268 252 269 281 282
236 244 249 255 275 292 304 315 322 329 334 339 343 346 350 354 360 355 348 339 336 334 328 333 334 333 342 357 11 354 356 349 321 300 283 261 266 260 262 281 280 277 289
235 242 251 259 274 288 296 303 310 314 319 322 325 328 334 340 342 340 340 343 346 347 348 351 346 337 334 338 338 344 346 4 24 30 3 335 315 295 287 272 274 283 300
238 245 248 259 262 265 272 285 296 300 304 311 315 319 319 319 320 324 332 340 339 341 344 349 349 346 347 347 343 334 328 311 321 343 19 34 30 18 351 310 285 266 245
259 258 257 258 261 265 273 283 287 292 296 299 298 296 297 300 301 310 322 332 336 341 345 349 352 354 353 352 346 343 340 332 327 317 308 314 329 341 353 6 13 337 200
301 287 274 272 275 277 275 269 272 278 284 288 294 297 299 298 300 304 320 330 333 331 328 324 334 341 346 347 348 346 346 340 335 334 333 330 319 315 328 343 352 345 322
331 314 293 281 275 271 265 262 263 266 276 278 282 283 282 281 283 292 308 311 311 309 300 296 299 302 316 322 323 333 347 351 346 345 341 339 344 346 341 325 313 308 312
327 322 324 315 294 271 263 260 258 260 262 268 272 275 280 281 282 290 299 303 308 302 295 293 292 301 326 336 339 339 340 341 342 342 346 348 347 349 350 350 352 344 320
315 323 328 321 309 286 262 255 253 256 259 264 269 281 285 286 291 296 299 302 297 289 285 283 278 285 329 343 343 342 340 342 342 339 338 342 346 349 354 353 357 356 350
310 326 325 324 317 304 270 253 249 251 253 261 272 282 290 297 299 297 299 298 294 289 285 281 278 286 305 319 318 320 322 326 331 333 333 335 336 337 344 348 351 354 352
321 320 327 331 325 308 268 247 244 244 247 253 267 286 302 303 301 297 295 296 298 289 283 286 293 300 315 314 314 309 313 321 323 322 322 323 322 326 335 341 346 347 343
309 333 334 326 317 299 255 235 234 239 247 260 268 296 306 303 299 292 290 290 291 291 290 293 305 316 317 296 307 309 309 316 319 318 316 313 304 303 321 335 344 336 336
322 328 326 326 319 294 250 236 238 245 251 262 284 301 299 296 294 292 290 287 283 285 292 301 310 308 299 292 294 309 305 311 316 316 314 312 303 302 307 322 340 338 342
310 320 325 328 321 293 258 243 242 249 257 271 289 294 294 291 290 288 287 287 288 292 305 315 307 298 297 292 295 313 298 304 311 313 314 315 314 317 325 335 319 322 325
319 323 326 328 321 285 246 241 246 257 272 286 288 288 287 288 288 286 287 289 297 310 312 302 297 297 298 293 289 311 288 301 304 305 310 319 319 320 358 335 323 326 328
315 313 319 318 307 279 259 256 262 273 279 280 277 282 287 288 290 288 291 298 309 307 297 297 297 298 301 297 294 300 295 301 309 309 307 314 315 322 330 320 323 327 324
311 311 311 305 296 284 275 272 272 273 275 278 281 285 288 290 291 295 305 302 294 293 294 295 297 297 301 302 302 305 308 311 315 318 325 330 323 329 335 319 320 339 332
313 312 312 306 296 286 283 279 276 275 278 282 285 287 288 292 294 291 291 291 291 292 293 294 292 293 300 302 300 308 305 318 324 321 327 330 334 330 321 313 316 332 314
306 303 303 297 293 291 287 282 280 282 284 286 289 293 293 292 287 288 288 287 290 290 289 290 282 290 296 300 301 310 291 311 302 310 315 324 337 324 303 291 307 303 297
293 296 298 299 296 292 290 287 288 290 293 292 292 292 292 289 285 284 285 284 283 284 287 281 287 295 299 303 289 283 315 307 307 307 313 308 294 290 290 299 305 307 306
304 305 302 296 292 290 290 292 293 294 292 292 292 291 290 286 283 282 284 282 282 280 277 274 298 303 303 312 286 263 320 320 318 312 305 294 286 282 299 302 301 300 301
305 303 300 297 295 294 293 293 293 293 291 289 290 290 288 282 282 282 281 279 276 272 273 297 305 309 313 321 326 318 310 314 317 303 291 294 292 296 299 303 306 308 308
300 297 297 297 297 295 295 295 293 291 288 289 289 287 282 282 283 283 278 273 273 267 268 269 281 291 291 293 292 295 296 297 289 284 289 293 298 301 304 304 304 304 303